TimeHST,TemperatureF,Dew PointF,Humidity,Sea Level PressureIn,VisibilityMPH,Wind Direction,Wind SpeedMPH,Gust SpeedMPH,PrecipitationIn,Events,Conditions,WindDirDegrees,DateUTC
12:03 AM,73.4,66.2,78,29.98,10.0,WNW,5.8,-,N/A,,Overcast,290,2012-10-01 10:03:00
12:32 AM,73.4,66.2,78,29.97,10.0,West,5.8,-,N/A,,Overcast,280,2012-10-01 10:32:00
12:53 AM,72.0,64.9,78,29.96,10.0,WSW,5.8,-,N/A,,Overcast,240,2012-10-01 10:53:00
1:53 AM,72.0,64.9,78,29.94,10.0,West,5.8,-,N/A,,Scattered Clouds,270,2012-10-01 11:53:00
2:51 AM,71.6,64.4,78,29.92,10.0,West,5.8,-,N/A,,Mostly Cloudy,270,2012-10-01 12:51:00
2:53 AM,71.1,64.9,81,29.92,10.0,West,5.8,-,N/A,,Mostly Cloudy,270,2012-10-01 12:53:00
3:48 AM,69.8,64.4,83,29.91,10.0,West,3.5,-,N/A,,Scattered Clouds,280,2012-10-01 13:48:00
3:53 AM,70.0,64.0,81,29.91,10.0,West,3.5,-,N/A,,Partly Cloudy,270,2012-10-01 13:53:00
4:23 AM,71.6,64.4,78,29.92,10.0,WSW,3.5,-,N/A,,Mostly Cloudy,240,2012-10-01 14:23:00
4:33 AM,71.6,64.4,78,29.92,10.0,West,4.6,-,N/A,,Scattered Clouds,260,2012-10-01 14:33:00
4:53 AM,69.1,64.0,84,29.93,10.0,WSW,6.9,-,N/A,,Partly Cloudy,240,2012-10-01 14:53:00
5:53 AM,70.0,64.0,81,29.94,10.0,West,5.8,-,N/A,,Clear,280,2012-10-01 15:53:00
6:44 AM,69.8,64.4,83,29.97,10.0,West,9.2,-,N/A,,Partly Cloudy,280,2012-10-01 16:44:00
6:53 AM,70.0,64.0,81,29.96,10.0,West,8.1,-,N/A,,Partly Cloudy,280,2012-10-01 16:53:00
7:53 AM,73.9,64.9,73,29.99,10.0,West,8.1,-,N/A,,Clear,280,2012-10-01 17:53:00
8:53 AM,80.1,66.0,62,29.99,10.0,Variable,3.5,-,N/A,,Mostly Cloudy,0,2012-10-01 18:53:00
9:03 AM,78.8,66.2,65,30.00,10.0,East,5.8,-,N/A,,Scattered Clouds,100,2012-10-01 19:03:00
9:53 AM,80.1,66.9,64,29.99,10.0,ESE,5.8,-,N/A,,Scattered Clouds,120,2012-10-01 19:53:00
10:53 AM,81.0,66.9,62,29.99,10.0,ESE,8.1,-,N/A,,Clear,110,2012-10-01 20:53:00
11:53 AM,82.0,68.0,62,29.96,10.0,SE,11.5,-,N/A,,Clear,130,2012-10-01 21:53:00
12:53 PM,82.0,66.9,60,29.94,10.0,SE,11.5,-,N/A,,Clear,140,2012-10-01 22:53:00
1:53 PM,82.9,66.9,58,29.91,10.0,ESE,10.4,-,N/A,,Clear,120,2012-10-01 23:53:00
2:53 PM,82.0,66.9,60,29.90,10.0,ESE,8.1,-,N/A,,Clear,120,2012-10-02 00:53:00
3:53 PM,82.0,66.9,60,29.90,10.0,ESE,8.1,-,N/A,,Clear,120,2012-10-02 01:53:00
4:53 PM,80.1,66.9,64,29.92,10.0,SSE,6.9,-,N/A,,Overcast,160,2012-10-02 02:53:00
5:53 PM,78.1,66.9,68,29.94,10.0,South,4.6,-,N/A,,Mostly Cloudy,190,2012-10-02 03:53:00
6:53 PM,77.0,66.9,71,29.95,10.0,SSE,3.5,-,N/A,,Clear,150,2012-10-02 04:53:00
7:53 PM,77.0,66.9,71,29.96,10.0,Calm,Calm,-,N/A,,Clear,0,2012-10-02 05:53:00
8:53 PM,73.9,66.9,79,29.97,10.0,WSW,3.5,-,N/A,,Clear,250,2012-10-02 06:53:00
9:53 PM,73.9,66.9,79,29.99,10.0,West,5.8,-,N/A,,Overcast,270,2012-10-02 07:53:00
10:53 PM,73.0,66.9,81,29.98,10.0,WSW,3.5,-,N/A,,Partly Cloudy,250,2012-10-02 08:53:00
11:49 PM,73.4,66.2,78,29.97,10.0,West,4.6,-,N/A,,Mostly Cloudy,270,2012-10-02 09:49:00
11:53 PM,73.0,66.9,81,29.97,10.0,WSW,3.5,-,N/A,,Mostly Cloudy,240,2012-10-02 09:53:00